• En Estados Unidos
  • Lista de países
  • Para 7 días
  • Temperatura del agua
  • Mapa Satelital
  • El tiempo en el mapa
  • Informadores
  • user-avatar
    Iniciar sesión

    Tiempo cada hora Kipungo

    Hoy, 18 Julio, Miércoles

    Tiempo Temperatura Precipitaciones Viento Presión Humedad
    00:00 +16°C° 0 mm 1 mps 656 mmHg 41%
    01:00 +15°C° 0 mm 2 mps 656 mmHg 47%
    02:00 +14°C° 0 mm 1 mps 655 mmHg 49%
    03:00 +14°C° 0 mm 1 mps 655 mmHg 52%
    04:00 +13°C° 0 mm 1 mps 655 mmHg 54%
    05:00 +13°C° 0 mm 1 mps 655 mmHg 56%
    06:00 +13°C° 0 mm 1 mps 655 mmHg 57%
    07:00 +13°C° 0 mm 1 mps 656 mmHg 57%
    08:00 +16°C° 0 mm 2 mps 657 mmHg 49%
    09:00 +19°C° 0 mm 3 mps 657 mmHg 42%
    10:00 +22°C° 0 mm 4 mps 658 mmHg 35%
    11:00 +25°C° 0 mm 3 mps 658 mmHg 30%
    12:00 +26°C° 0 mm 3 mps 658 mmHg 26%
    13:00 +28°C° 0 mm 3 mps 657 mmHg 21%
    14:00 +28°C° 0 mm 2 mps 657 mmHg 20%
    15:00 +28°C° 0 mm 2 mps 657 mmHg 19%
    16:00 +28°C° 0 mm 2 mps 656 mmHg 19%
    17:00 +25°C° 0 mm 2 mps 656 mmHg 23%
    18:00 +23°C° 0 mm 2 mps 655 mmHg 27%
    19:00 +20°C° 0 mm 1 mps 655 mmHg 31%
    20:00 +19°C° 0 mm 1 mps 655 mmHg 33%
    21:00 +18°C° 0 mm 1 mps 655 mmHg 35%
    22:00 +16°C° 0 mm 1 mps 656 mmHg 37%
    23:00 +16°C° 0 mm 2 mps 656 mmHg 40%

    Mañana, 19 Julio, Jueves

    Tiempo Temperatura Precipitaciones Viento Presión Humedad
    00:00 +15°C° 0 mm 2 mps 655 mmHg 43%
    01:00 +14°C° 0 mm 2 mps 655 mmHg 47%
    02:00 +14°C° 0 mm 2 mps 655 mmHg 50%
    03:00 +13°C° 0 mm 2 mps 655 mmHg 53%
    04:00 +12°C° 0 mm 2 mps 655 mmHg 57%
    05:00 +12°C° 0 mm 2 mps 655 mmHg 59%
    06:00 +12°C° 0 mm 2 mps 655 mmHg 61%
    07:00 +12°C° 0 mm 2 mps 655 mmHg 63%
    08:00 +15°C° 0 mm 2 mps 656 mmHg 54%
    09:00 +18°C° 0 mm 3 mps 657 mmHg 45%
    10:00 +21°C° 0 mm 4 mps 657 mmHg 36%
    11:00 +24°C° 0 mm 3 mps 657 mmHg 31%
    12:00 +26°C° 0 mm 3 mps 657 mmHg 27%
    13:00 +28°C° 0 mm 3 mps 657 mmHg 22%
    14:00 +28°C° 0 mm 2 mps 656 mmHg 21%
    15:00 +28°C° 0 mm 2 mps 656 mmHg 20%
    16:00 +29°C° 0 mm 1 mps 655 mmHg 18%
    17:00 +26°C° 0 mm 1 mps 655 mmHg 23%
    18:00 +23°C° 0 mm 1 mps 655 mmHg 27%
    19:00 +20°C° 0 mm 1 mps 654 mmHg 31%
    20:00 +19°C° 0 mm 1 mps 655 mmHg 33%
    21:00 +19°C° 0 mm 1 mps 655 mmHg 34%
    22:00 +18°C° 0 mm 1 mps 655 mmHg 36%
    23:00 +16°C° 0 mm 1 mps 655 mmHg 38%

    Pasado mañana, 20 Julio, Viernes

    Tiempo Temperatura Precipitaciones Viento Presión Humedad
    00:00 +15°C° 0 mm 1 mps 655 mmHg 41%
    01:00 +14°C° 0 mm 1 mps 655 mmHg 43%
    02:00 +14°C° 0 mm 1 mps 654 mmHg 46%
    03:00 +13°C° 0 mm 1 mps 654 mmHg 49%
    04:00 +12°C° 0 mm 1 mps 654 mmHg 52%
    05:00 +12°C° 0 mm 1 mps 654 mmHg 53%
    06:00 +12°C° 0 mm 1 mps 654 mmHg 54%
    07:00 +12°C° 0 mm 1 mps 654 mmHg 55%
    08:00 +15°C° 0 mm 2 mps 655 mmHg 47%
    09:00 +19°C° 0 mm 3 mps 656 mmHg 38%
    10:00 +22°C° 0 mm 3 mps 657 mmHg 29%
    11:00 +25°C° 0 mm 3 mps 657 mmHg 25%
    12:00 +27°C° 0 mm 3 mps 656 mmHg 22%
    13:00 +29°C° 0 mm 3 mps 656 mmHg 18%
    14:00 +29°C° 0 mm 2 mps 655 mmHg 17%
    15:00 +29°C° 0 mm 2 mps 655 mmHg 16%
    16:00 +30°C° 0 mm 1 mps 654 mmHg 15%
    17:00 +27°C° 0 mm 1 mps 654 mmHg 19%
    18:00 +24°C° 0 mm 1 mps 654 mmHg 23%
    19:00 +21°C° 0 mm 1 mps 653 mmHg 27%
    20:00 +20°C° 0 mm 1 mps 654 mmHg 28%
    21:00 +19°C° 0 mm 1 mps 654 mmHg 30%
    22:00 +18°C° 0 mm 1 mps 655 mmHg 32%
    23:00 +16°C° 0 mm 1 mps 654 mmHg 34%

    21 Julio, Sábado

    Tiempo Temperatura Precipitaciones Viento Presión Humedad
    00:00 +15°C° 0 mm 1 mps 654 mmHg 36%
    01:00 +15°C° 0 mm 1 mps 654 mmHg 39%
    02:00 +14°C° 0 mm 1 mps 654 mmHg 41%
    03:00 +13°C° 0 mm 1 mps 653 mmHg 44%
    04:00 +13°C° 0 mm 1 mps 653 mmHg 47%
    05:00 +13°C° 0 mm 1 mps 653 mmHg 48%
    06:00 +13°C° 0 mm 1 mps 654 mmHg 49%
    07:00 +12°C° 0 mm 1 mps 654 mmHg 50%
    08:00 +16°C° 0 mm 2 mps 655 mmHg 42%
    09:00 +20°C° 0 mm 2 mps 656 mmHg 34%
    10:00 +25°C° 0 mm 3 mps 657 mmHg 26%
    11:00 +27°C° 0 mm 3 mps 657 mmHg 22%
    12:00 +29°C° 0 mm 2 mps 657 mmHg 19%
    13:00 +31°C° 0 mm 2 mps 657 mmHg 15%
    14:00 +31°C° 0 mm 1 mps 656 mmHg 14%
    15:00 +31°C° 0 mm 1 mps 656 mmHg 14%
    16:00 +31°C° 0 mm 1 mps 655 mmHg 13%
    17:00 +28°C° 0 mm 1 mps 655 mmHg 16%
    18:00 +25°C° 0 mm 1 mps 655 mmHg 19%
    19:00 +22°C° 0 mm 1 mps 654 mmHg 23%
    20:00 +21°C° 0 mm 1 mps 655 mmHg 24%
    21:00 +20°C° 0 mm 1 mps 655 mmHg 26%
    22:00 +19°C° 0 mm 1 mps 656 mmHg 28%
    23:00 +18°C° 0 mm 1 mps 655 mmHg 30%

    22 Julio, Domingo

    Tiempo Temperatura Precipitaciones Viento Presión Humedad
    00:00 +18°C° 0 mm 1 mps 655 mmHg 32%
    01:00 +16°C° 0 mm 1 mps 655 mmHg 34%
    02:00 +15°C° 0 mm 1 mps 654 mmHg 35%
    03:00 +14°C° 0 mm 1 mps 654 mmHg 37%
    04:00 +14°C° 0 mm 1 mps 654 mmHg 39%
    05:00 +14°C° 0 mm 1 mps 654 mmHg 40%
    06:00 +14°C° 0 mm 1 mps 655 mmHg 40%
    07:00 +14°C° 0 mm 1 mps 655 mmHg 41%
    08:00 +17°C° 0 mm 2 mps 656 mmHg 35%
    09:00 +21°C° 0 mm 3 mps 657 mmHg 30%
    10:00 +25°C° 0 mm 3 mps 658 mmHg 24%
    11:00 +27°C° 0 mm 3 mps 657 mmHg 21%
    12:00 +29°C° 0 mm 3 mps 657 mmHg 18%
    13:00 +32°C° 0 mm 2 mps 657 mmHg 15%
    14:00 +32°C° 0 mm 2 mps 656 mmHg 14%
    15:00 +32°C° 0 mm 2 mps 656 mmHg 14%
    16:00 +32°C° 0 mm 1 mps 656 mmHg 13%
    17:00 +29°C° 0 mm 1 mps 655 mmHg 16%
    18:00 +26°C° 0 mm 1 mps 655 mmHg 19%
    19:00 +23°C° 0 mm 1 mps 655 mmHg 22%
    20:00 +22°C° 0 mm 1 mps 656 mmHg 24%
    21:00 +21°C° 0 mm 1 mps 656 mmHg 26%
    22:00 +20°C° 0 mm 1 mps 656 mmHg 27%
    23:00 +19°C° 0 mm 1 mps 656 mmHg 29%

    23 Julio, Lunes

    Tiempo Temperatura Precipitaciones Viento Presión Humedad
    00:00 +18°C° 0 mm 1 mps 655 mmHg 32%
    01:00 +16°C° 0 mm 1 mps 655 mmHg 34%
    02:00 +15°C° 0 mm 1 mps 655 mmHg 35%
    03:00 +15°C° 0 mm 1 mps 654 mmHg 36%
    04:00 +13°C° 0 mm 0 mps 654 mmHg 37%
    05:00 +14°C° 0 mm 1 mps 655 mmHg 37%
    06:00 +14°C° 0 mm 1 mps 655 mmHg 38%
    07:00 +14°C° 0 mm 1 mps 655 mmHg 39%
    08:00 +17°C° 0 mm 2 mps 656 mmHg 33%
    09:00 +21°C° 0 mm 3 mps 657 mmHg 27%
    10:00 +26°C° 0 mm 3 mps 658 mmHg 22%
    11:00 +27°C° 0 mm 3 mps 657 mmHg 19%
    12:00 +29°C° 0 mm 3 mps 657 mmHg 17%
    13:00 +31°C° 0 mm 3 mps 657 mmHg 15%
    14:00 +32°C° 0 mm 2 mps 656 mmHg 14%
    15:00 +32°C° 0 mm 2 mps 656 mmHg 13%
    16:00 +32°C° 0 mm 2 mps 656 mmHg 13%
    17:00 +29°C° 0 mm 1 mps 655 mmHg 16%
    18:00 +26°C° 0 mm 1 mps 655 mmHg 19%
    19:00 +23°C° 0 mm 1 mps 655 mmHg 22%
    20:00 +22°C° 0 mm 1 mps 655 mmHg 23%
    21:00 +21°C° 0 mm 1 mps 655 mmHg 24%
    22:00 +20°C° 0 mm 1 mps 655 mmHg 25%
    23:00 +19°C° 0 mm 1 mps 655 mmHg 27%
    Mostrar más